Flag for Norway Weather past 2 weeks in Ørsta, Norway

Now
55 °F

Mostly cloudy.


Feels Like: 54 °F
Forecast: 50 / 56 °F
Wind: 7 mph from Southeast

Location: Alesund / Vigra

Current Time: Sep 20, 2014 at 6:06:40 AM

Latest Report: Sep 20, 2014 at 5:20 AM


Visibility: N/A

Pressure: 29.89 "Hg

Humidity: 82%

Dew point: 50 °F

Location of ØrstaLocation

Historic Weather in Ørsta — Graph

°F

Ørsta temperature yesterday

Maximum temperature yesterday: 64 °F (at 3:20 PM)
Minimum temperature yesterday: 48 °F (at 12:20 AM)
Average temperature yesterday: 56 °F

Past Weeks' High & Low Weather Summary

 TemperatureHumidityPressure
High70 °F (Sep 7, 12:50 PM)100% (Sep 6, 10:20 PM)30.48 "Hg (Sep 6, 10:20 PM)
Low45 °F (Sep 16, 4:50 AM)56% (Sep 19, 4:20 PM)29.80 "Hg (Sep 8, 8:50 AM)
Average57 °F86%30.15 "Hg
* Reported Sep 5 4:20 AM — Sep 20 4:50 AM, Ørsta, Weather by CustomWeather, © 2014

Note: Actual official high and low records may vary slightly from our data, if they occured in-between our weather recording intervals... More about our weather records

Advertising

Ørsta weather history for previous 24 hours

 ConditionsComfort  
Time TempWeatherWind HumidityBarometerVisibility
4:50 AM
Sep 20
55 °FLight rain. Passing clouds.7 mph77%29.89 "HgN/A
4:20 AM55 °FMostly cloudy.7 mph82%29.89 "HgN/A
3:50 AM55 °FMostly cloudy.9 mph82%29.89 "HgN/A
3:20 AM54 °FMostly cloudy.12 mph88%29.92 "HgN/A
2:50 AM55 °FPartly cloudy.9 mph82%29.92 "HgN/A
1:50 AM55 °FPassing clouds.9 mph82%29.92 "HgN/A
1:20 AM55 °FMostly cloudy.8 mph88%29.95 "HgN/A
12:50 AM55 °FPartly cloudy.9 mph88%29.95 "HgN/A
12:20 AM55 °FPassing clouds.8 mph88%29.95 "HgN/A
11:50 PM
Sep 19
54 °FCool.9 mph94%29.98 "HgN/A
10:50 PM55 °FClear.7 mph88%29.98 "Hg10 mi
10:20 PM55 °FClear.6 mph88%29.98 "Hg10 mi
9:50 PM54 °FClear.5 mph94%29.98 "Hg10 mi
9:20 PM54 °FClear.2 mph88%29.98 "Hg10 mi
8:50 PM54 °FClear.2 mph82%29.98 "Hg10 mi
8:20 PM54 °FSunny.No wind82%29.98 "Hg10 mi
7:50 PM55 °FSunny.1 mph82%30.01 "Hg10 mi
7:20 PM57 °FSunny.1 mph72%30.01 "Hg10 mi
6:50 PM59 °FSunny.No wind68%30.01 "Hg10 mi
6:20 PM61 °FSunny.2 mph63%30.01 "Hg10 mi
5:50 PM63 °FSunny.3 mph56%30.01 "Hg10 mi
5:20 PM63 °FSunny.1 mph68%30.01 "Hg10 mi
4:50 PM64 °FPassing clouds.3 mph64%30.01 "HgN/A
4:20 PM64 °FSunny.3 mph56%30.01 "Hg10 mi
3:50 PM64 °FSunny.3 mph64%30.01 "Hg10 mi
3:20 PM64 °FPassing clouds.5 mph64%30.04 "HgN/A
2:50 PM63 °FScattered clouds.5 mph64%30.04 "HgN/A
2:20 PM63 °FScattered clouds.7 mph64%30.04 "HgN/A
1:50 PM63 °FSunny.7 mph59%30.04 "Hg10 mi
1:20 PM63 °FSunny.7 mph64%30.04 "Hg10 mi
12:50 PM61 °FSunny.8 mph68%30.04 "Hg10 mi
12:20 PM59 °FSunny.8 mph72%30.04 "Hg10 mi
11:50 AM57 °FPassing clouds.8 mph82%30.04 "HgN/A
11:20 AM57 °FPartly sunny.8 mph77%30.07 "HgN/A
10:50 AM57 °FPartly sunny.8 mph77%30.07 "HgN/A
10:20 AM55 °FPartly sunny.9 mph82%30.07 "HgN/A
9:50 AM55 °FPartly sunny.10 mph82%30.07 "HgN/A
9:20 AM55 °FScattered clouds.10 mph88%30.07 "HgN/A
8:50 AM54 °FScattered clouds.9 mph88%30.07 "HgN/A
8:20 AM54 °FPartly sunny.8 mph88%30.07 "HgN/A
7:50 AM54 °FPassing clouds.9 mph88%30.07 "HgN/A
7:20 AM54 °FPassing clouds.9 mph88%30.07 "HgN/A
6:50 AM54 °FPassing clouds.9 mph88%30.07 "HgN/A
6:20 AM54 °FPassing clouds.9 mph88%30.07 "HgN/A
Weather by CustomWeather, © 2014

See weather overviewHow to use our weather pages